FENGYUN 1C DEB

Satellite information

Favourite Embed

Satellite Type and Status

DEBRISIN ORBIT

Key statistics

Satellite FENGYUN 1C DEB at a glance.

Uptime

9494

Days in orbit

Revolutions

≈ 14.2

Per day

Orbit

SSO

Sun Synchronous Orbit

Inclination

98.7

Latest

Satellite identification and parameters

Extended collection of information and parameters for FENGYUN 1C DEB.

Object identification

Identified? True

Debris? True

Object name: FENGYUN 1C DEB

International designator: 1999-025DKU

Object number (NORAD): 35116

Object ID (CCSDS): 35116

Country: PEOPLES REPUBLIC OF CHINA (PRC)

Current information (Y/N): Y

RCS size: SMALL

Orbital parameters

Period: 101.119 minutes

Inclination: 98.6752 deg

SMA: 7189.798 km

Apoapsis: 853.348 km

Periapsis: 769.978 km

RAAN: 174.6355 deg

Eccentricy: 0.0057978

Argument of periapsis: 331.1122 deg

Mean anomaly: 28.6851 deg

Mean motion: 14.24058245 rev/day

Mean motion (dot): 0.00002384 rev/day2

B* drag term: 0.0010382 1/REarth

Two-line elements (TLE)

Creation date: May 6, 2025, 3:54 a.m.

Reference frame: TEME

Reference center: EARTH

Epoch: May 5, 2025, 8:27 p.m. UTC

TLE line 0: 0 FENGYUN 1C DEB

TLE line 1: 1 35116U 99025DKU 25125.85274333 .00002384 00000-0 10382-2 0 9994

TLE line 2: 2 35116 98.6752 174.6355 0057978 331.1122 28.6851 14.24058245568155

Live tracking on map

Real-time ground track for satellite FENGYUN 1C DEB.

In-orbit conjunctions

A list of the most updated potential collisions computed for object FENGYUN 1C DEB.

Target Orbit TCA Probability of collision Miss distance Type
FENGYUN 1C DEB SSO 2024-11-11 22:40:00 0.0001763106 184.0 (m) DEBRIS
COSMOS 1943 LEO 2024-07-07 19:03:36 0.0001512603 607.0 (m) PAYLOAD

Associated space launch

Chinese polar orbiting meteorological satellite

FENGYUN 1C DEB was lifted into orbit during the mission ‘Long March 4B | Feng Yun 1C’, on board a Long March 4B space rocket.

The launch took place on May 10, 1999, 1:33 a.m. from Launch Complex 7.

For more information about the launch, click the button.

Launch to space Long March 4B | Feng Yun 1C
Long March 4B | Feng Yun 1C

Agency: N/A

Status: Launch Successful

Launch date: May 10, 1999, 1:33 a.m. UTC

Rocket: Long March 4B

Launch pad: Launch Complex 7

Location: Taiyuan Satellite Launch Center, People's Republic of China

...

Latest news about this satellite

There are no fresh news available about this satellite. Check back as we update our databases every day.


Newsletter sign-up

Weekly statistics, charts and insights to help you stay on top of the space industry.